| time (UTC) | temp F | wind direction | speed MPH | gust MPH | rain 1hr in | rain 24hr in | rain mn in | humidity % | barometer mb |
| 20260905223017 | 72 | 354 | 4.0 | 10.0 | 0.00 | 0.00 | 0.00 | 83 | 1017.3 |
| 20260905222033 | 70 | 352 | 3.0 | 7.0 | 0.00 | 0.00 | 0.00 | 86 | 1017.3 |
| 20260905221030 | 71 | 343 | 4.0 | 9.0 | 0.00 | 0.00 | 0.00 | 85 | 1017.3 |
| 20260905220029 | 72 | 346 | 4.0 | 9.0 | 0.00 | 0.00 | 0.00 | 83 | 1017.4 |
| 20260905215044 | 71 | 2 | 3.0 | 9.0 | 0.00 | 0.00 | 0.00 | 85 | 1017.4 |
| 20260905214021 | 71 | 0 | 3.0 | 9.0 | 0.00 | 0.00 | 0.00 | 86 | 1017.4 |
| 20260905213017 | 71 | 348 | 3.0 | 9.0 | 0.00 | 0.00 | 0.00 | 87 | 1017.3 |
| 20260905212057 | 71 | 358 | 3.0 | 8.0 | 0.00 | 0.00 | 0.00 | 87 | 1017.3 |
| 20260905211052 | 71 | 3 | 3.0 | 8.0 | 0.00 | 0.00 | 0.00 | 88 | 1017.3 |
| 20260905210049 | 71 | 350 | 3.0 | 8.0 | 0.00 | 0.00 | 0.00 | 88 | 1017.3 |
| 20260905205026 | 71 | 350 | 4.0 | 9.0 | 0.00 | 0.00 | 0.00 | 87 | 1017.3 |
| 20260905204021 | 71 | 16 | 4.0 | 13.0 | 0.00 | 0.00 | 0.00 | 88 | 1017.3 |
| 20260905203018 | 70 | 343 | 4.0 | 11.0 | 0.00 | 0.00 | 0.00 | 90 | 1017.3 |
| 20260905202035 | 70 | 1 | 4.0 | 10.0 | 0.00 | 0.00 | 0.00 | 91 | 1017.3 |
| 20260905201033 | 70 | 345 | 3.0 | 8.0 | 0.00 | 0.00 | 0.00 | 92 | 1017.3 |
| 20260905200029 | 70 | 356 | 3.0 | 7.0 | 0.00 | 0.00 | 0.00 | 92 | 1017.3 |
| 20260905195025 | 70 | 343 | 2.0 | 7.0 | 0.00 | 0.00 | 0.00 | 93 | 1017.3 |
| 20260905194022 | 70 | 4 | 3.0 | 7.0 | 0.00 | 0.00 | 0.00 | 91 | 1017.3 |
| 20260905193018 | 70 | 358 | 3.0 | 8.0 | 0.00 | 0.00 | 0.00 | 91 | 1017.3 |
| 20260905192015 | 71 | 356 | 3.0 | 7.0 | 0.00 | 0.00 | 0.00 | 91 | 1017.3 |
| 20260905191032 | 71 | 356 | 2.0 | 7.0 | 0.00 | 0.00 | 0.00 | 92 | 1017.3 |
| 20260905190029 | 70 | 4 | 2.0 | 6.0 | 0.00 | 0.00 | 0.00 | 93 | 1017.4 |
| 20260905185026 | 70 | 7 | 2.0 | 6.0 | 0.00 | 0.00 | 0.00 | 94 | 1017.6 |
| 20260905184024 | 70 | 3 | 2.0 | 6.0 | 0.00 | 0.00 | 0.00 | 93 | 1017.5 |
| 20260905183020 | 71 | 356 | 3.0 | 7.0 | 0.00 | 0.00 | 0.00 | 92 | 1017.4 |
| 20260905182036 | 70 | 360 | 2.0 | 8.0 | 0.00 | 0.00 | 0.00 | 93 | 1017.4 |
| 20260905181033 | 70 | 342 | 4.0 | 8.0 | 0.00 | 0.00 | 0.00 | 93 | 1017.4 |
| 20260905180030 | 70 | 352 | 3.0 | 8.0 | 0.00 | 0.00 | 0.00 | 94 | 1017.3 |
| 20260905175027 | 70 | 351 | 3.0 | 8.0 | 0.00 | 0.00 | 0.00 | 94 | 1017.3 |
| 20260905174044 | 70 | 5 | 3.0 | 7.0 | 0.00 | 0.00 | 0.00 | 96 | 1017.2 |
| 20260905173020 | 69 | 8 | 3.0 | 7.0 | 0.00 | 0.00 | 0.00 | 96 | 1017.3 |
| 20260905172018 | 69 | 355 | 3.0 | 7.0 | 0.00 | 0.00 | 0.00 | 96 | 1017.3 |
| 20260905171034 | 69 | 357 | 4.0 | 9.0 | 0.00 | 0.00 | 0.00 | 95 | 1017.3 |
| 20260905170030 | 70 | 9 | 2.0 | 6.0 | 0.00 | 0.00 | 0.00 | 94 | 1017.3 |
| 20260905165048 | 70 | 354 | 2.0 | 6.0 | 0.00 | 0.00 | 0.00 | 94 | 1017.4 |
| 20260905164024 | 71 | 32 | 1.0 | 4.0 | 0.00 | 0.00 | 0.00 | 94 | 1017.4 |
| 20260905163022 | 71 | 32 | 1.0 | 3.0 | 0.00 | 0.00 | 0.00 | 95 | 1017.3 |
| 20260905162017 | 70 | 34 | 1.0 | 3.0 | 0.00 | 0.00 | 0.00 | 95 | 1017.2 |
| 20260905161033 | 70 | 26 | 1.0 | 4.0 | 0.00 | 0.00 | 0.00 | 97 | 1017.1 |
| 20260905160030 | 69 | 32 | 2.0 | 4.0 | 0.00 | 0.00 | 0.00 | 97 | 1017.1 |
| 20260905155047 | 70 | 358 | 2.0 | 6.0 | 0.00 | 0.00 | 0.00 | 96 | 1017.0 |
| 20260905154023 | 70 | 40 | 2.0 | 6.0 | 0.00 | 0.00 | 0.00 | 97 | 1016.9 |
| 20260905153020 | 70 | 11 | 2.0 | 7.0 | 0.00 | 0.00 | 0.00 | 98 | 1016.7 |
| 20260905152017 | 69 | 12 | 2.0 | 8.0 | 0.00 | 0.00 | 0.00 | 98 | 1016.6 |
| 20260905151034 | 70 | 35 | 2.0 | 6.0 | 0.00 | 0.00 | 0.00 | 98 | 1016.5 |
| 20260905150032 | 70 | 20 | 2.0 | 8.0 | 0.00 | 0.00 | 0.00 | 98 | 1016.3 |
| 20260905145027 | 70 | 33 | 2.0 | 8.0 | 0.00 | 0.00 | 0.00 | 99 | 1016.1 |
| 20260905144044 | 70 | 10 | 2.0 | 7.0 | 0.00 | 0.00 | 0.00 | 99 | 1015.9 |
| 20260905143020 | 69 | 359 | 2.0 | 7.0 | 0.00 | 0.00 | 0.00 | 99 | 1015.9 |
| 20260905142017 | 70 | 345 | 4.0 | 13.0 | 0.00 | 0.01 | 0.00 | 99 | 1015.9 |
| 20260905141035 | 70 | 348 | 4.0 | 11.0 | 0.00 | 0.01 | 0.00 | 99 | 1015.9 |
| 20260905140032 | 70 | 354 | 3.0 | 9.0 | 0.00 | 0.01 | 0.00 | 99 | 1016.0 |
| 20260905135027 | 69 | 342 | 4.0 | 11.0 | 0.00 | 0.01 | 0.00 | 99 | 1016.2 |
| 20260905134024 | 69 | 349 | 4.0 | 11.0 | 0.00 | 0.01 | 0.00 | 99 | 1016.3 |
| 20260905133021 | 69 | 352 | 4.0 | 9.0 | 0.00 | 0.02 | 0.00 | 99 | 1016.1 |
| 20260905132018 | 69 | 345 | 4.0 | 10.0 | 0.00 | 0.07 | 0.00 | 99 | 1015.7 |
| 20260905131035 | 69 | 345 | 4.0 | 10.0 | 0.00 | 0.10 | 0.00 | 99 | 1015.6 |
| 20260905130031 | 69 | 344 | 4.0 | 9.0 | 0.00 | 0.17 | 0.00 | 99 | 1015.6 |
| 20260905125028 | 69 | 353 | 4.0 | 10.0 | 0.00 | 0.17 | 0.00 | 99 | 1015.5 |
| 20260905124025 | 69 | 346 | 3.0 | 11.0 | 0.00 | 0.18 | 0.00 | 99 | 1015.4 |
| 20260905123042 | 69 | 347 | 3.0 | 10.0 | 0.00 | 0.18 | 0.00 | 99 | 1015.3 |
| 20260905122018 | 69 | 348 | 3.0 | 10.0 | 0.00 | 0.18 | 0.00 | 99 | 1015.2 |
| 20260905121056 | 69 | 348 | 4.0 | 8.0 | 0.00 | 0.23 | 0.00 | 99 | 1015.2 |
| 20260905120032 | 68 | 335 | 4.0 | 10.0 | 0.00 | 0.29 | 0.00 | 99 | 1015.1 |
| 20260905115029 | 68 | 350 | 3.0 | 13.0 | 0.00 | 0.30 | 0.00 | 99 | 1014.9 |
| 20260905114025 | 68 | 351 | 3.0 | 10.0 | 0.00 | 0.31 | 0.00 | 99 | 1014.9 |
| 20260905113023 | 68 | 352 | 4.0 | 10.0 | 0.00 | 0.35 | 0.00 | 99 | 1014.7 |
| 20260905112020 | 68 | 341 | 3.0 | 10.0 | 0.00 | 0.48 | 0.00 | 99 | 1014.6 |
| 20260905111035 | 68 | 347 | 4.0 | 13.0 | 0.00 | 0.63 | 0.00 | 99 | 1014.7 |
| 20260905110052 | 68 | 347 | 4.0 | 14.0 | 0.00 | 0.79 | 0.00 | 99 | 1014.5 |
| 20260905105030 | 68 | 353 | 4.0 | 8.0 | 0.00 | 0.96 | 0.00 | 99 | 1014.6 |
| 20260905104025 | 68 | 345 | 4.0 | 10.0 | 0.00 | 1.02 | 0.00 | 99 | 1014.5 |
| 20260905103022 | 68 | 353 | 3.0 | 8.0 | 0.00 | 1.25 | 0.00 | 99 | 1014.6 |
| 20260905102019 | 68 | 2 | 3.0 | 8.0 | 0.00 | 1.49 | 0.00 | 99 | 1014.7 |
| 20260905101016 | 68 | 357 | 4.0 | 9.0 | 0.00 | 1.67 | 0.00 | 99 | 1014.6 |
| 20260905100032 | 68 | 350 | 4.0 | 9.0 | 0.00 | 1.76 | 0.00 | 99 | 1014.6 |
| 20260905095029 | 68 | 345 | 4.0 | 10.0 | 0.00 | 2.17 | 0.00 | 99 | 1014.5 |
| 20260905094025 | 68 | 344 | 3.0 | 9.0 | 0.00 | 2.22 | 0.00 | 99 | 1014.5 |
| 20260905093022 | 68 | 345 | 4.0 | 11.0 | 0.00 | 2.23 | 0.00 | 99 | 1014.4 |
| 20260905092019 | 68 | 343 | 4.0 | 10.0 | 0.00 | 2.24 | 0.00 | 99 | 1014.3 |
| 20260905091016 | 68 | 354 | 4.0 | 9.0 | 0.00 | 2.33 | 0.00 | 99 | 1014.2 |
| 20260905090034 | 68 | 354 | 3.0 | 8.0 | 0.00 | 2.39 | 0.00 | 99 | 1014.1 |
| 20260905085051 | 68 | 352 | 4.0 | 8.0 | 0.00 | 2.42 | 0.00 | 99 | 1014.1 |
| 20260905084026 | 69 | 349 | 4.0 | 9.0 | 0.00 | 2.46 | 0.00 | 99 | 1014.0 |
| 20260905083023 | 69 | 1 | 2.0 | 7.0 | 0.00 | 2.58 | 0.00 | 99 | 1014.0 |
| 20260905082021 | 69 | 353 | 3.0 | 8.0 | 0.00 | 3.25 | 0.00 | 99 | 1014.1 |
| 20260905081017 | 69 | 358 | 3.0 | 7.0 | 0.00 | 3.36 | 0.00 | 99 | 1014.2 |
| 20260905080033 | 69 | 352 | 3.0 | 8.0 | 0.00 | 3.36 | 0.00 | 99 | 1014.1 |
| 20260905075031 | 69 | 344 | 3.0 | 8.0 | 0.00 | 3.40 | 0.00 | 99 | 1014.2 |
| 20260905074027 | 69 | 345 | 3.0 | 7.0 | 0.00 | 3.44 | 0.00 | 99 | 1014.2 |
| 20260905073023 | 69 | 350 | 3.0 | 8.0 | 0.00 | 3.48 | 0.00 | 99 | 1014.3 |
| 20260905072019 | 69 | 348 | 3.0 | 7.0 | 0.00 | 3.54 | 0.00 | 99 | 1014.2 |
| 20260905071017 | 69 | 348 | 2.0 | 6.0 | 0.00 | 3.55 | 0.00 | 99 | 1014.2 |
| 20260905070033 | 69 | 349 | 3.0 | 7.0 | 0.00 | 3.56 | 0.00 | 99 | 1014.2 |
| 20260905065031 | 69 | 351 | 2.0 | 7.0 | 0.00 | 3.57 | 0.00 | 99 | 1014.3 |
| 20260905064046 | 70 | 3 | 2.0 | 7.0 | 0.00 | 3.57 | 0.00 | 99 | 1014.5 |
| 20260905063023 | 70 | 347 | 2.0 | 4.0 | 0.00 | 3.57 | 0.00 | 99 | 1014.5 |
| 20260905062100 | 70 | 341 | 1.0 | 3.0 | 0.00 | 3.58 | 0.00 | 99 | 1014.5 |
| 20260905061016 | 70 | 346 | 1.0 | 2.0 | 0.00 | 3.59 | 0.00 | 99 | 1014.5 |
| 20260905060033 | 69 | 337 | 1.0 | 3.0 | 0.00 | 3.59 | 0.00 | 99 | 1014.5 |
| 20260905055031 | 69 | 338 | 1.0 | 3.0 | 0.00 | 3.59 | 0.00 | 99 | 1014.5 |
| 20260905054027 | 69 | 353 | 2.0 | 4.0 | 0.00 | 3.59 | 0.00 | 99 | 1014.5 |
| 20260905053024 | 69 | 349 | 1.0 | 6.0 | 0.00 | 3.60 | 0.00 | 99 | 1014.2 |
| 20260905052020 | 70 | 355 | 1.0 | 3.0 | 0.00 | 3.62 | 0.00 | 99 | 1014.1 |
| 20260905051017 | 70 | 343 | 1.0 | 2.0 | 0.00 | 3.62 | 0.00 | 99 | 1014.2 |
| 20260905050035 | 70 | 337 | 1.0 | 2.0 | 0.00 | 3.62 | 0.00 | 99 | 1014.3 |
| 20260905045031 | 69 | 343 | 0.0 | 1.0 | 0.00 | 3.62 | 3.62 | 99 | 1014.4 |
| 20260905044027 | 69 | 346 | 1.0 | 1.0 | 0.00 | 3.62 | 3.62 | 99 | 1014.3 |
| 20260905043024 | 69 | 358 | 1.0 | 4.0 | 0.00 | 3.62 | 3.62 | 99 | 1014.3 |
| 20260905042021 | 70 | 5 | 1.0 | 3.0 | 0.00 | 3.62 | 3.62 | 99 | 1014.4 |
| 20260905041017 | 69 | 356 | 1.0 | 3.0 | 0.00 | 3.63 | 3.62 | 99 | 1014.5 |
| 20260905040034 | 69 | 355 | 2.0 | 3.0 | 0.00 | 3.63 | 3.62 | 99 | 1014.5 |
| 20260905035031 | 69 | 350 | 2.0 | 4.0 | 0.00 | 3.63 | 3.62 | 99 | 1014.3 |
| 20260905034028 | 69 | 15 | 1.0 | 3.0 | 0.00 | 3.63 | 3.62 | 99 | 1014.2 |
| 20260905033046 | 70 | 8 | 1.0 | 6.0 | 0.00 | 3.63 | 3.62 | 99 | 1014.4 |
| 20260905032143 | 71 | 16 | 1.0 | 3.0 | 0.00 | 3.63 | 3.62 | 99 | 1014.3 |
| 20260905031018 | 71 | 202 | 1.0 | 3.0 | 0.00 | 3.63 | 3.62 | 99 | 1014.0 |
| 20260905030055 | 70 | 181 | 0.0 | 2.0 | 0.00 | 3.63 | 3.62 | 99 | 1014.0 |
| 20260905025032 | 70 | 64 | 0.0 | 1.0 | 0.00 | 3.63 | 3.62 | 99 | 1014.1 |
| 20260905024049 | 70 | 0.0 | 0.0 | 0.00 | 3.63 | 3.62 | 99 | 1014.0 | |
| 20260905023046 | 69 | 0.0 | 0.0 | 0.00 | 3.63 | 3.62 | 99 | 1014.2 | |
| 20260905022023 | 69 | 7 | 0.0 | 1.0 | 0.00 | 3.63 | 3.62 | 99 | 1014.3 |
| 20260905021019 | 69 | 13 | 0.0 | 1.0 | 0.00 | 3.63 | 3.62 | 99 | 1014.1 |
| 20260905020016 | 69 | 348 | 0.0 | 1.0 | 0.00 | 3.63 | 3.62 | 99 | 1014.1 |
| 20260905015033 | 69 | 349 | 0.0 | 1.0 | 0.00 | 3.63 | 3.62 | 99 | 1014.2 |
| 20260905014030 | 69 | 334 | 1.0 | 2.0 | 0.00 | 3.63 | 3.62 | 99 | 1014.3 |
| 20260905013028 | 68 | 341 | 1.0 | 2.0 | 0.00 | 3.63 | 3.62 | 99 | 1014.0 |
| 20260905012024 | 68 | 352 | 1.0 | 3.0 | 0.00 | 3.63 | 3.62 | 99 | 1014.1 |
| 20260905011020 | 69 | 355 | 2.0 | 6.0 | 0.00 | 3.63 | 3.62 | 99 | 1014.1 |
| 20260905010017 | 69 | 6 | 2.0 | 4.0 | 0.00 | 3.63 | 3.62 | 99 | 1014.2 |
| 20260905005034 | 69 | 7 | 1.0 | 2.0 | 0.00 | 3.63 | 3.62 | 98 | 1014.1 |
| 20260905004030 | 69 | 353 | 1.0 | 2.0 | 0.00 | 3.63 | 3.62 | 97 | 1013.8 |
| 20260905003027 | 70 | 36 | 0.0 | 1.0 | 0.00 | 3.63 | 3.62 | 95 | 1013.8 |
| 20260905002044 | 71 | 337 | 0.0 | 2.0 | 0.00 | 3.63 | 3.62 | 94 | 1013.8 |
| 20260905001041 | 72 | 356 | 1.0 | 3.0 | 0.00 | 3.63 | 3.62 | 91 | 1013.8 |
| 20260905000018 | 74 | 57 | 1.0 | 3.0 | 0.00 | 3.63 | 3.62 | 91 | 1013.5 |
| 20260904235034 | 74 | 0.0 | 0.0 | 0.00 | 3.63 | 3.62 | 93 | 1013.5 | |
| 20260904234032 | 73 | 156 | 0.0 | 1.0 | 0.00 | 3.63 | 3.62 | 93 | 1013.5 |
| 20260904233028 | 73 | 138 | 0.0 | 1.0 | 0.00 | 3.63 | 3.62 | 92 | 1013.5 |
| 20260904232025 | 74 | 136 | 1.0 | 1.0 | 0.00 | 3.63 | 3.62 | 92 | 1013.5 |
| 20260904231122 | 74 | 138 | 0.0 | 3.0 | 0.00 | 3.63 | 3.62 | 91 | 1013.5 |
| 20260904230018 | 74 | 147 | 1.0 | 3.0 | 0.00 | 3.63 | 3.62 | 90 | 1013.4 |
| 20260904225115 | 75 | 141 | 2.0 | 3.0 | 0.00 | 3.63 | 3.62 | 90 | 1013.3 |
| 20260904224033 | 75 | 164 | 1.0 | 3.0 | 0.00 | 3.63 | 3.62 | 88 | 1013.2 |